This demonstration page uses our WeatherBlox Daily Observations layout. Learn more.

Left ArrowRight Arrow

Hourly Observations for November 9, 2020

Temp ( °F °C ) Dew Point ( °F °C ) Humidity (%) Winds ( mph kmh ) Pressure ( in mb ) Visibility ( mi km ) Precip ( " mm )
12:15 am 00:15 Partly Cloudy 60 15.8 54 12.1 79 79 S 21 33 29.66 1004 10 16 N/A
12:35 am 00:35 Partly Cloudy 61 15.9 54 12.2 79 79 S 22 35 29.66 1004 10 16 N/A
12:55 am 00:55 Partly Cloudy 60 15.6 54 12.3 81 81 S 20 31 29.65 1004 10 16 N/A
1:15 am 01:15 Cloudy 61 16 55 12.5 80 80 S 21 33 29.65 1004 10 16 N/A
1:35 am 01:35 Cloudy 61 16 55 12.7 81 81 S 22 35 29.65 1004 10 16 N/A
1:55 am 01:55 Cloudy 61 16 55 12.8 81 81 S 25 41 29.64 1004 10 16 N/A
2:15 am 02:15 Cloudy 61 16 55 13 83 83 S 24 39 29.64 1004 10 16 N/A
2:35 am 02:35 Cloudy 60 15.7 55 13 84 84 S 21 33 29.64 1004 10 16 N/A
2:55 am 02:55 Cloudy 61 15.9 55 13 83 83 S 24 39 29.65 1004 10 16 N/A
3:15 am 03:15 Cloudy 60 15.8 56 13.1 84 84 S 23 37 29.63 1003 10 16 N/A
3:35 am 03:35 Mostly Cloudy 60 15.8 56 13.1 84 84 S 22 35 29.63 1003 10 16 N/A
3:55 am 03:55 Cloudy 60 15.7 56 13.1 85 85 S 21 33 29.62 1003 10 16 N/A
4:15 am 04:15 Windy with Storms Likely 60 15.5 56 13.5 88 88 S 20 31 29.63 1003 10 16 N/A
4:35 am 04:35 Cloudy with Heavy Thunderstorms 59 15.2 56 13.6 90 90 S 23 37 29.64 1004 3 5 0.11 2.79
4:55 am 04:55 Windy with Storms Likely 59 15.2 57 13.8 91 91 S 21 33 29.63 1003 10 16 0.12 3.05
5:15 am 05:15 Cloudy 59 15.2 57 14 93 93 S 20 31 29.63 1003 10 16 0.01 0.25
5:35 am 05:35 Cloudy 60 15.3 57 14 92 92 S 18 30 29.63 1003 10 16 0.01 0.25
5:55 am 05:55 Cloudy 60 15.3 57 14 92 92 S 18 30 29.63 1003 10 16 0.01 0.25
6:10 am 06:10 Cloudy 60 15.5 57 14.1 91 91 S 18 30 29.63 1003 10 16 N/A
6:35 am 06:35 Cloudy 60 15.5 57 14.1 91 91 S 17 28 29.64 1004 10 16 N/A
6:55 am 06:55 Cloudy 60 15.6 58 14.2 91 91 S 17 28 29.64 1004 10 16 N/A
7:15 am 07:15 Cloudy with Light Rain 60 15.8 58 14.2 90 90 S 18 30 29.64 1004 10 16 N/A
7:35 am 07:35 Cloudy 60 15.8 58 14.2 90 90 SSW 12 19 29.66 1004 10 16 N/A
7:55 am 07:55 Cloudy 60 15.7 58 14.3 91 91 WSW 7 11 29.67 1005 10 16 N/A
8:15 am 08:15 Cloudy with Light Rain 60 15.7 58 14.3 91 91 NW 16 26 29.68 1005 10 16 N/A
8:35 am 08:35 Cloudy with Drizzle 42 5.5 39 4.1 91 91 N 16 26 29.80 1009 10 16 N/A
8:55 am 08:55 Cloudy 40 4.7 39 3.7 93 93 N 15 24 29.83 1010 10 16 N/A
9:15 am 09:15 Cloudy 38 3.5 37 2.5 93 93 NNW 14 22 29.87 1012 10 16 N/A
9:35 am 09:35 Cloudy 37 2.6 35 1.5 93 93 N 23 37 29.89 1012 10 16 N/A
9:55 am 09:55 Cloudy 36 2 33 0.8 92 92 N 25 41 29.90 1012 10 16 N/A
10:15 am 10:15 Cloudy 35 1.8 33 0.6 92 92 N 18 30 29.91 1013 10 16 N/A
10:35 am 10:35 Cloudy 34 1.1 32 undefined 92 92 N 24 39 29.92 1013 10 16 N/A
10:55 am 10:55 Cloudy with Mist and Fog 34 1.1 32 0.2 94 94 N 18 30 29.94 1014 5 8 N/A
11:15 am 11:15 Cloudy with Mist and Fog 34 1 32 0.1 94 94 N 22 35 29.94 1014 4 6 N/A
11:35 am 11:35 Cloudy with Mist and Fog 34 1.1 33 0.3 94 94 N 20 31 29.95 1014 3 5 N/A
11:55 am 11:55 Cloudy with Mist and Fog 34 1.2 33 0.5 95 95 N 22 35 29.95 1014 3 5 N/A
12:15 pm 12:15 Cloudy with Mist and Fog 34 1 32 0.1 94 94 N 24 39 29.94 1014 3 4 N/A
12:35 pm 12:35 Cloudy with Mist and Fog 32 0.1 31 -0.4 96 96 N 25 41 29.96 1015 3 5 N/A
12:55 pm 12:55 Cloudy with Mist and Fog 32 0.1 31 -0.5 96 96 N 21 33 29.96 1015 5 8 N/A
1:15 pm 13:15 Cloudy 32 0.2 31 -0.5 95 95 N 17 28 29.96 1015 10 16 N/A
1:35 pm 13:35 Cloudy 32 undefined 31 -0.5 96 96 N 18 30 29.96 1015 10 16 N/A
1:55 pm 13:55 Cloudy 32 undefined 31 -0.7 95 95 N 20 31 29.96 1015 7 11 N/A
2:15 pm 14:15 Cloudy 32 undefined 31 -0.6 96 96 N 24 39 29.96 1015 10 16 N/A
2:35 pm 14:35 Cloudy 32 undefined 30 -1 93 93 N 18 30 29.96 1015 10 16 N/A
2:55 pm 14:55 Cloudy 32 -0.1 30 -1.2 92 92 N 22 35 29.98 1015 10 16 N/A
3:15 pm 15:15 Cloudy 32 -0.1 30 -1.1 93 93 N 21 33 29.99 1015 10 16 N/A
3:35 pm 15:35 Cloudy 32 undefined 30 -1.1 92 92 N 20 31 29.99 1016 10 16 N/A
3:55 pm 15:55 Cloudy 32 undefined 30 -1 93 93 N 17 28 29.99 1016 10 16 N/A
4:15 pm 16:15 Cloudy 32 undefined 30 -1 93 93 N 14 22 29.99 1016 10 16 N/A
4:35 pm 16:35 Cloudy 32 undefined 30 -1.3 91 91 N 16 26 30.00 1016 10 16 N/A
4:55 pm 16:55 Cloudy 32 undefined 30 -1.3 91 91 N 16 26 30.00 1016 10 16 N/A
5:15 pm 17:15 Cloudy 32 undefined 30 -1.3 91 91 N 14 22 30.00 1016 10 16 N/A
5:35 pm 17:35 Cloudy 32 undefined 29 -1.5 90 90 N 15 24 30.01 1016 10 16 N/A
5:55 pm 17:55 Cloudy 32 undefined 29 -1.4 90 90 N 13 20 30.02 1017 10 16 N/A
6:15 pm 18:15 Cloudy with Light Wintry Mix 32 undefined 29 -1.5 90 90 N 15 24 30.00 1016 10 16 N/A
6:35 pm 18:35 Cloudy with Light Wintry Mix 32 undefined 29 -1.5 90 90 N 17 28 30.00 1016 10 16 N/A
6:55 pm 18:55 Cloudy with Nearby Thunderstorms 32 undefined 29 -1.6 89 89 N 18 30 29.99 1016 10 16 N/A
7:15 pm 19:15 Cloudy with Light Snow 32 undefined 30 -1.2 92 92 NNE 14 22 30.00 1016 4 6 0.05 1.27
7:35 pm 19:35 Cloudy 32 undefined 30 -1.3 91 91 N 13 20 29.99 1016 7 11 0.08 2.03
7:55 pm 19:55 Cloudy 32 -0.2 29 -1.7 90 90 NNE 15 24 30.00 1016 10 16 0.08 2.03
8:15 pm 20:15 Cloudy with Nearby Thunderstorms 31 -0.3 28 -2.1 88 88 NNE 13 20 30.01 1016 10 16 N/A
8:35 pm 20:35 Cloudy with Light Wintry Mix 32 -0.2 28 -2 88 88 N 8 13 30.02 1016 10 16 N/A
8:55 pm 20:55 Cloudy with Light Snow 32 -0.2 28 -2 88 88 NNE 13 20 30.00 1016 10 16 0.03 0.76
9:15 pm 21:15 Cloudy 31 -0.4 28 -2.2 88 88 NNE 12 19 30.00 1016 10 16 N/A
9:35 pm 21:35 Cloudy with Light Wintry Mix 31 -0.5 28 -2.5 87 87 N 10 17 30.01 1016 10 16 N/A
9:55 pm 21:55 Cloudy 31 -0.6 27 -2.7 86 86 N 10 17 30.03 1017 10 16 N/A
10:15 pm 22:15 Cloudy with Light Wintry Mix 31 -0.5 27 -2.6 86 86 N 12 19 30.01 1016 10 16 0.01 0.25
10:35 pm 22:35 Cloudy with Light Wintry Mix 31 -0.8 27 -2.9 86 86 N 12 19 30.01 1016 10 16 0.01 0.25
10:55 pm 22:55 Cloudy with Light Wintry Mix 30 -1 26 -3.1 86 86 N 14 22 30.02 1017 10 16 0.01 0.25
11:15 pm 23:15 Cloudy with Light Wintry Mix 30 -1 27 -2.7 88 88 N 14 22 30.00 1016 10 16 N/A
11:35 pm 23:35 Cloudy 30 -1.3 25 -3.8 83 83 N 8 13 30.02 1016 10 16 N/A
11:55 pm 23:55 Cloudy 30 -1.2 26 -3.5 85 85 N 12 19 30.02 1016 10 16 N/A

Powered by AerisWeather